Flag for Norway Weather past 2 weeks in Fredrikstad, Norway

Now
43 °F

Mostly cloudy.


Feels Like: 34 °F
Forecast: 41 / 50 °F
Wind: 18 mph from Southwest

Location: Rygge


UV Index: 0 (Low)

Visibility: N/A


Pressure: 29.95 "Hg

Humidity: 81%

Dew point: 37 °F

Location of FredrikstadLocation

Historic Weather in Fredrikstad

°F

Fredrikstad temperature yesterday

Maximum temperature yesterday: 48 °F (at 1:20 PM)
Minimum temperature yesterday: 30 °F (at 2:20 AM)
Average temperature yesterday: 42 °F

Past Weeks' High & Low Weather Summary

 TemperatureHumidityPressure
High57 °F (Apr 13, 3:50 PM)100% (Apr 5, 2:20 AM)30.33 "Hg (Apr 5, 2:20 AM)
Low25 °F (Apr 5, 4:50 AM)26% (Apr 15, 3:50 PM)29.39 "Hg (Apr 13, 4:50 AM)
Average42 °F77%29.87 "Hg
* Reported Apr 2 4:20 AM — Apr 17 4:50 AM, Fredrikstad, Weather by CustomWeather, © 2014

Note: Actual official high and low records may vary slightly from our data, if they occured in-between our weather recording intervals... More about our weather records

Advertising

Historic Weather Conditions — Data for Previous 24 hours

 ConditionsComfort  
Time TempWeatherWind HumidityBarometerVisibility
4:50 AM
Apr 17
43 °FPassing clouds.17 mph81%29.98 "HgN/A
4:20 AM43 °FPartly cloudy.16 mph81%30.01 "HgN/A
3:50 AM43 °FMostly cloudy.16 mph81%30.04 "HgN/A
3:20 AM43 °FPartly cloudy.15 mph81%30.04 "HgN/A
2:50 AM43 °FPartly cloudy.16 mph87%30.07 "HgN/A
2:20 AM43 °FPassing clouds.14 mph87%30.07 "HgN/A
1:50 AM43 °FPassing clouds.14 mph87%30.09 "HgN/A
1:20 AM43 °FPassing clouds.13 mph87%30.09 "HgN/A
12:50 AM43 °FPassing clouds.9 mph87%30.09 "HgN/A
12:20 AM43 °FPassing clouds.10 mph87%30.12 "HgN/A
11:50 PM
Apr 16
45 °FMostly cloudy.13 mph81%30.12 "HgN/A
11:20 PM45 °FPassing clouds.14 mph81%30.12 "HgN/A
10:50 PM45 °FClear.9 mph81%30.15 "Hg10 mi
10:20 PM45 °FPassing clouds.10 mph81%30.15 "HgN/A
9:50 PM45 °FPassing clouds.8 mph81%30.15 "HgN/A
9:20 PM45 °FSunny.13 mph81%30.15 "Hg10 mi
8:50 PM45 °FSunny.14 mph81%30.15 "Hg10 mi
8:20 PM46 °FSunny.14 mph76%30.15 "Hg10 mi
7:50 PM46 °FSunny.14 mph76%30.15 "Hg10 mi
7:20 PM46 °FSunny.13 mph76%30.15 "Hg10 mi
6:50 PM45 °FSunny.17 mph81%30.18 "Hg10 mi
6:20 PM46 °FSunny.17 mph76%30.18 "Hg10 mi
5:50 PM48 °FSunny.14 mph71%30.18 "Hg10 mi
4:50 PM48 °FSunny.15 mph71%30.21 "Hg10 mi
4:20 PM48 °FSunny.15 mph71%30.21 "Hg10 mi
3:50 PM48 °FSunny.15 mph66%30.21 "Hg10 mi
3:20 PM48 °FSunny.16 mph66%30.21 "Hg10 mi
2:50 PM48 °FSunny.17 mph62%30.24 "Hg10 mi
2:20 PM48 °FSunny.16 mph58%30.24 "Hg10 mi
1:50 PM48 °FSunny.17 mph62%30.24 "Hg10 mi
1:20 PM48 °FSunny.16 mph62%30.24 "Hg10 mi
12:50 PM46 °FPassing clouds.14 mph71%30.27 "HgN/A
12:20 PM46 °FSunny.14 mph71%30.27 "Hg10 mi
11:50 AM46 °FSunny.14 mph76%30.27 "Hg10 mi
11:20 AM46 °FScattered clouds.12 mph76%30.27 "HgN/A
10:50 AM45 °FPartly sunny.13 mph87%30.27 "HgN/A
10:20 AM45 °FScattered clouds.14 mph87%30.27 "HgN/A
9:50 AM45 °FScattered clouds.10 mph81%30.30 "HgN/A
9:20 AM45 °FSunny.10 mph66%30.30 "Hg10 mi
8:50 AM43 °FSunny.8 mph71%30.30 "Hg10 mi
8:20 AM39 °FSunny.6 mph87%30.30 "Hg10 mi
7:50 AM39 °FSunny.6 mph81%30.30 "Hg10 mi
7:20 AM36 °FSunny.5 mph87%30.30 "Hg10 mi
6:50 AM34 °FClear.6 mph87%30.30 "Hg10 mi
6:20 AM32 °FClear.6 mph87%30.30 "Hg10 mi
Weather by CustomWeather, © 2014

See weather overview